Regional Weather Roundup
Issued by NWS Cleveland, OH

Home | Current Version | Previous Version | Text Only | Print | Product List | Glossary Off
Versions: 1 2 3 4 5 6 7 8 9 10 11 12 13 14 15 16 17 18 19 20 21 22 23 24 25 26 27 28 29 30 31 32 33 34 35 36 37 38 39 40 41 42 43 44 45 46 47 48 49 50

000
ASUS41 KCLE 030610
RWRCLE
OHIO REGIONAL WEATHER ROUNDUP
NATIONAL WEATHER SERVICE WILMINGTON, OH
200 AM EDT THU SEP 03 2015

NOTE: "FAIR" INDICATES FEW OR NO CLOUDS BELOW 12,000 FEET WITH NO
SIGNIFICANT WEATHER AND/OR OBSTRUCTIONS TO VISIBILITY.

OHZ001>008-015>018-024>027-034-035-043-044-030700-
   NORTHWEST OHIO

CITY           SKY/WX    TMP DP  RH WIND       PRES   REMARKS
DEFIANCE       FAIR      74  67  78 CALM      30.00F
FINDLAY        FAIR      70  65  84 SW5       29.99F
TOLEDO EXPRESS MOCLDY    73  69  87 SW3       29.98F
TOLEDO EXEC    MOCLDY    73  68  84 SW8       29.99S
LIMA           FAIR      70  68  93 S8        30.01F
$$

OHZ009>014-019>023-028>033-038-089-030700-
   NORTHEAST OHIO

CITY           SKY/WX    TMP DP  RH WIND       PRES   REMARKS
CLE-HOPKINS    FAIR      73  68  84 SW3       30.00S
CLE-LAKEFRONT  FAIR      76  70  82 SW5       29.96F
CUY CO. ARPT   NOT AVBL
LORAIN-ELYRIA  FAIR      69  66  90 W7        29.99F
ASHTABULA      FAIR      69  68  96 CALM      29.99S FOG
AKRON-CANTON   FAIR      72  68  87 SW6       30.00F FOG
WOOSTER        FAIR      66  65  96 CALM      30.01F FOG
MANSFIELD      FAIR      73  67  81 W8        30.02F
YOUNGSTOWN     MOCLDY    70  68  93 SW3       30.00S
$$

OHZ042-051>053-060>062-070>072-077>081-030700-
  SOUTHWEST OHIO

CITY           SKY/WX    TMP DP  RH WIND       PRES   REMARKS
CINC-COVINGTON MOCLDY    71  67  87 SW3       30.03F
CINC-LUNKEN    FOG       67  67 100 CALM      30.02F VSB 1/2
HAMILTON       FAIR      68  66  93 CALM      30.03F
DAYTON         FAIR      70  68  93 SE5       30.05F
WRIGHT-PAT AFB PTCLDY    70  68  94 W2        30.03F
DAYTON GENERAL FAIR      69  66  90 NE6       30.04S
WILMINGTON     FAIR      67  64  90 CALM      30.04F
$$

OHZ036-037-039>041-045>050-054>059-063>069-073>076-082>088-030700-
  CENTRAL AND SOUTHEAST OHIO

CITY           SKY/WX    TMP DP  RH WIND       PRES   REMARKS
COLUMBUS       CLOUDY    72  67  84 S3        30.01F
OSU AIRPORT    FAIR      71  67  87 W5        30.01F
BOLTON FIELD   MOCLDY    70  69  96 CALM      30.02F
RICKENBACK AFB CLOUDY    70  68  92 CALM      30.00F
NEWARK         FAIR      72  67  84 CALM      30.00F
MARION         FAIR      71  66  84 W9        30.02F
LANCASTER      FAIR      71  67  87 SW3       30.02F
ZANESVILLE     FAIR      69  65  86 S3        30.01F
NEW PHILLY     FAIR      68  67  96 CALM      30.00F FOG
$$


USA.gov is the U.S. government's official web portal to all federal, state and local government web resources and services.